Location: Balaclava NSW 2575, Australia
(34.4510°S, 150.4953°E)
Time: 13:34:26
(UTC+10:00)

S-56A Canister/Altair - Visible Passes

Search period start: 13 June 2021 00:00
Search period end: 23 June 2021 00:00
Orbit: 632 x 2500 km, 38.9° (Epoch: 12 June)

Date Brightness Start Highest point End Pass type
(mag) Time Alt. Az. Time Alt. Az. Time Alt. Az.
13 Jun 10.1 17:01:15 10° NW 17:16:17 67° NNE 17:29:00 10° ESE visible
13 Jun 9.5 19:08:12 10° W 19:23:05 78° SSW 19:26:59 51° ESE visible
13 Jun 10.3 21:16:52 10° WSW 21:24:24 38° WSW 21:24:24 38° WSW visible
14 Jun 9.7 18:34:21 10° WNW 18:49:34 81° SSW 18:56:02 35° ESE visible
14 Jun 9.8 20:42:56 10° W 20:53:28 54° WSW 20:53:28 54° WSW visible
15 Jun 9.9 18:00:35 10° WNW 18:15:59 85° SSW 18:25:06 23° ESE visible
15 Jun 9.5 20:08:59 10° W 20:22:31 70° SSW 20:22:31 70° SSW visible
15 Jun 11.2 22:17:15 10° WSW 22:19:56 18° WSW 22:19:56 18° WSW visible
16 Jun 10.0 17:26:55 10° WNW 17:42:20 88° SSW 17:54:09 14° ESE visible
16 Jun 9.4 19:35:02 10° W 19:49:46 72° S 19:51:35 65° SE visible
16 Jun 10.7 21:43:24 10° WSW 21:49:00 29° WSW 21:49:00 29° WSW visible
17 Jun 10.1 16:53:22 10° WNW 17:08:41 88° NNE 17:22:10 10° ESE visible
17 Jun 9.6 19:01:08 10° W 19:16:13 73° S 19:20:39 47° ESE visible
17 Jun 10.2 21:09:32 10° WSW 21:18:05 43° WSW 21:18:05 43° WSW visible
18 Jun 9.8 18:27:17 10° W 18:42:36 74° S 18:49:44 33° ESE visible
18 Jun 9.7 20:35:40 10° WSW 20:47:10 63° WSW 20:47:10 63° WSW visible
18 Jun 11.5 22:43:45 10° WSW 22:44:35 12° WSW 22:44:35 12° WSW visible
19 Jun 9.9 17:53:31 10° W 18:08:55 75° S 18:18:51 21° ESE visible
19 Jun 9.4 20:01:47 10° WSW 20:16:17 81° S 20:16:17 81° S visible
19 Jun 11.1 22:09:51 10° WSW 22:13:43 22° WSW 22:13:43 22° WSW visible
20 Jun 10.1 17:19:49 10° W 17:35:11 77° S 17:48:00 12° ESE visible
20 Jun 9.4 19:27:55 10° WSW 19:42:59 79° SSE 19:45:27 64° ESE visible
20 Jun 10.6 21:35:57 10° WSW 21:42:53 34° W 21:42:53 34° W visible
21 Jun 9.7 18:54:05 10° WSW 19:09:24 77° S 19:14:39 44° E visible
21 Jun 10.1 21:02:04 10° WSW 21:12:06 50° W 21:12:06 50° W visible
22 Jun 9.8 18:20:19 10° W 18:35:44 76° S 18:43:55 29° E visible
22 Jun 9.6 20:28:13 10° WSW 20:41:22 70° WNW 20:41:22 70° WNW visible
22 Jun 11.4 22:37:03 10° W 22:38:49 14° W 22:38:49 14° W visible
